User: anonymous
Location: Unspecified
(0.0000°N, 0.0000°E)
Time: 16:23:47
(UTC+00:00)
Language:

HST - Orbit

View from above orbital plane
View from above orbital plane
View from above satellite
View from above satellite

Ground track
Ground track

The orbit data is extracted from the following two-line orbital elements,

1 20580U 90037B   14208.17680758  .00001140  00000-0  65421-4 0   631
2 20580 028.4701 134.2236 0003147 356.2431 144.6530 15.05556227130756
Epoch (UTC): 27 July 2014 04:14:36
Eccentricity: 0.0003147
inclination: 28.4701°
perigee height: 547 km
apogee height: 552 km
right ascension of ascending node: 134.2236°
argument of perigee: 356.2431°
revolutions per day: 15.05556227
mean anomaly at epoch: 144.6530°
orbit number at epoch: 13075

The dashed part of the orbit path shows where the satellite is in the earth's shadow,  

DLR